This is the latest recevied weather packets stored in our database for station/object SP4IM-13. If no packets are shown the sender has not sent any weather packets the latest 10 day(s).
| Time | Temp. | Humidity | Pressure | Rain* | Wind** | Luminosity | Snow |
|---|---|---|---|---|---|---|---|
| 1778134803 | 18.89° C | 56% | 1004 hPa | - | - | - | - |
| 1778134205 | 18.33° C | 56% | 1004 hPa | - | - | - | - |
| 1778133608 | 18.33° C | 55% | 1004 hPa | - | - | - | - |
| 1778133005 | 17.22° C | 54% | 1004 hPa | - | - | - | - |
| 1778132403 | 17.22° C | 54% | 1004 hPa | - | - | - | - |
| 1778131803 | 17.78° C | 56% | 1004 hPa | - | - | - | - |
| 1778131204 | 17.22° C | 62% | 1004 hPa | - | - | - | - |
| 1778130604 | 16.67° C | 65% | 1004 hPa | - | - | - | - |
| 1778130007 | 16.67° C | 70% | 1004 hPa | - | - | - | - |
| 1778129403 | 16.67° C | 74% | 1004 hPa | - | - | - | - |
| 1778128805 | 16.11° C | 77% | 1004 hPa | - | - | - | - |
| 1778128203 | 15.56° C | 78% | 1004 hPa | - | - | - | - |
| 1778127603 | 15.56° C | 79% | 1004 hPa | - | - | - | - |
| 1778127003 | 15° C | 80% | 1004 hPa | - | - | - | - |
| 1778126405 | 15° C | 81% | 1003 hPa | - | - | - | - |
| 1778125805 | 14.44° C | 82% | 1003 hPa | - | - | - | - |
| 1778125203 | 14.44° C | 82% | 1003 hPa | - | - | - | - |
| 1778124609 | 14.44° C | 82% | 1004 hPa | - | - | - | - |
| 1778124006 | 14.44° C | 82% | 1003 hPa | - | - | - | - |
| 1778123403 | 14.44° C | 82% | 1003 hPa | - | - | - | - |
| 1778122806 | 14.44° C | 82% | 1003 hPa | - | - | - | - |
| 1778122202 | 14.44° C | 83% | 1004 hPa | - | - | - | - |
| 1778121603 | 14.44° C | 83% | 1004 hPa | - | - | - | - |
| 1778121002 | 13.89° C | 83% | 1003 hPa | - | - | - | - |
| 1778120402 | 13.89° C | 83% | 1003 hPa | - | - | - | - |
* Rain since midnight (hover to see other rain measurements)
** Current wind speed in m/s (hover to see current wind gust speed)